Zurück zum Katalog

ONEWEB-0528

AktivKommunikationPO
NORAD 54643·PAYLOAD·🇬🇧 United Kingdom

Gestartet Dec 8, 2022 von Cape Canaveral Space Force Station

Loading…

Nächste Überflüge (nächste 24 Stunden)

TLE

AktuellSource: CelesTrak SupGP

Epoche: Sep 14, 2026, 14:11 UTC

1 54643C 22166B   26257.59145833 -.00002515  00000+0 -60966-2 0  2579
2 54643  87.9277 226.2011 0002117  77.0874   1.5978 13.21828984    19

Verfolge ONEWEB-0528 in Echtzeit mit AllMySat

Download on the App Store